User: anonymous   Login
Location: Unspecified
(0.0000°N, 0.0000°E)
Time: 20:08:12
(UTC+00:00)
Language:

Courier 1B Rocket - Orbit

View from above orbital plane
View from above orbital plane
View from above satellite
View from above satellite

Ground track
Ground track

The orbit data is extracted from the following two-line orbital elements,

1    59U 60013B   20195.81087648  .00000101  00000-0  15647-4 0  9992
2    59  28.2492  82.8096 0189298 147.4203 213.8179 13.52977531950686
Epoch (UTC): 13 July 2020 19:27:39
Eccentricity: 0.0189298
inclination: 28.2492°
perigee height: 920 km
apogee height: 1202 km
right ascension of ascending node: 82.8096°
argument of perigee: 147.4203°
revolutions per day: 13.52977531
mean anomaly at epoch: 213.8179°
orbit number at epoch: 95068

The dashed part of the orbit path shows where the satellite is in the earth's shadow,  

DLR